Time,TemperatureF,DewpointF,PressureIn,WindDirection,WindDirectionDegrees,WindSpeedMPH,WindSpeedGustMPH,Humidity,HourlyPrecipIn,Conditions,Clouds,dailyrainin,SoftwareType,DateUTC
2013-11-13 00:13:00,34.5,21.0,30.43,SSW,195,1.0,5.0,57,0.00,,,0.01,weatherlink.com 1.10,2013-11-13 05:13:00,
2013-11-13 00:28:00,33.9,20.0,30.43,NW,317,0.0,2.0,57,0.00,,,0.01,weatherlink.com 1.10,2013-11-13 05:28:00,
2013-11-13 00:43:00,33.4,20.0,30.43,NW,321,0.0,3.0,59,0.00,,,0.01,weatherlink.com 1.10,2013-11-13 05:43:00,
2013-11-13 00:58:00,33.0,19.0,30.44,South,186,1.0,3.0,57,0.00,,,0.00,weatherlink.com 1.10,2013-11-13 05:58:00,
2013-11-13 01:13:00,32.6,19.0,30.44,SSW,211,0.0,3.0,58,0.00,,,0.00,weatherlink.com 1.10,2013-11-13 06:13:00,
2013-11-13 01:28:00,32.1,19.0,30.43,NW,309,1.0,2.0,58,0.00,,,0.00,weatherlink.com 1.10,2013-11-13 06:28:00,
2013-11-13 01:43:00,31.6,19.0,30.43,SW,235,0.0,2.0,59,0.00,,,0.00,weatherlink.com 1.10,2013-11-13 06:43:00,
2013-11-13 01:58:00,31.2,19.0,30.44,SW,214,0.0,2.0,60,0.00,,,0.00,weatherlink.com 1.10,2013-11-13 06:58:00,
2013-11-13 02:13:00,30.8,19.0,30.44,NNW,348,0.0,1.0,63,0.00,,,0.00,weatherlink.com 1.10,2013-11-13 07:13:00,
2013-11-13 02:28:00,30.3,19.0,30.44,West,260,0.0,1.0,63,0.00,,,0.00,weatherlink.com 1.10,2013-11-13 07:28:00,
2013-11-13 02:43:00,30.2,18.0,30.44,SE,131,0.0,2.0,61,0.00,,,0.00,weatherlink.com 1.10,2013-11-13 07:43:00,
2013-11-13 02:59:00,30.1,19.0,30.44,WSW,246,0.0,2.0,63,0.00,,,0.00,weatherlink.com 1.10,2013-11-13 07:59:00,
2013-11-13 03:14:00,30.0,18.0,30.44,WSW,239,0.0,0.0,62,0.00,,,0.00,weatherlink.com 1.10,2013-11-13 08:14:00,
2013-11-13 03:29:00,29.8,19.0,30.45,WNW,298,0.0,3.0,64,0.00,,,0.00,weatherlink.com 1.10,2013-11-13 08:29:00,
2013-11-13 03:44:00,29.8,19.0,30.45,WNW,285,0.0,3.0,64,0.00,,,0.00,weatherlink.com 1.10,2013-11-13 08:44:00,
2013-11-13 03:59:00,29.6,19.0,30.45,West,263,0.0,2.0,64,0.00,,,0.00,weatherlink.com 1.10,2013-11-13 08:59:00,
2013-11-13 04:14:00,29.8,19.0,30.45,WSW,257,0.0,2.0,64,0.00,,,0.00,weatherlink.com 1.10,2013-11-13 09:14:00,
2013-11-13 04:29:00,29.7,19.0,30.45,West,280,0.0,2.0,64,0.00,,,0.00,weatherlink.com 1.10,2013-11-13 09:29:00,
2013-11-13 04:44:00,29.6,19.0,30.46,NW,312,0.0,1.0,65,0.00,,,0.00,weatherlink.com 1.10,2013-11-13 09:44:00,
2013-11-13 04:59:00,29.2,19.0,30.46,WNW,285,0.0,1.0,65,0.00,,,0.00,weatherlink.com 1.10,2013-11-13 09:59:00,
2013-11-13 05:14:00,28.7,19.0,30.46,West,273,0.0,0.0,68,0.00,,,0.00,weatherlink.com 1.10,2013-11-13 10:14:00,
2013-11-13 05:29:00,28.3,20.0,30.47,West,276,0.0,0.0,70,0.00,,,0.00,weatherlink.com 1.10,2013-11-13 10:29:00,
2013-11-13 05:44:00,28.2,19.0,30.48,West,276,0.0,0.0,69,0.00,,,0.00,weatherlink.com 1.10,2013-11-13 10:44:00,
2013-11-13 05:59:00,28.0,20.0,30.48,West,276,0.0,0.0,71,0.00,,,0.00,weatherlink.com 1.10,2013-11-13 10:59:00,
2013-11-13 06:14:00,27.8,20.0,30.49,West,276,0.0,0.0,71,0.00,,,0.00,weatherlink.com 1.10,2013-11-13 11:14:00,
2013-11-13 06:29:00,27.8,20.0,30.49,West,280,0.0,0.0,73,0.00,,,0.00,weatherlink.com 1.10,2013-11-13 11:29:00,
2013-11-13 06:44:00,28.0,20.0,30.50,ENE,63,0.0,1.0,71,0.00,,,0.00,weatherlink.com 1.10,2013-11-13 11:44:00,
2013-11-13 06:59:00,28.1,20.0,30.50,East,100,0.0,1.0,72,0.00,,,0.00,weatherlink.com 1.10,2013-11-13 11:59:00,
2013-11-13 07:14:00,28.3,20.0,30.50,East,100,0.0,1.0,72,0.00,,,0.00,weatherlink.com 1.10,2013-11-13 12:14:00,
2013-11-13 07:29:00,28.8,21.0,30.51,WNW,285,1.0,1.0,72,0.00,,,0.00,weatherlink.com 1.10,2013-11-13 12:29:00,
2013-11-13 07:44:00,29.7,21.0,30.51,West,266,0.0,2.0,71,0.00,,,0.00,weatherlink.com 1.10,2013-11-13 12:44:00,
2013-11-13 07:59:00,30.7,22.0,30.52,SE,127,2.0,3.0,69,0.00,,,0.00,weatherlink.com 1.10,2013-11-13 12:59:00,
2013-11-13 08:14:00,32.3,22.0,30.53,SE,132,1.0,5.0,67,0.00,,,0.00,weatherlink.com 1.10,2013-11-13 13:14:00,
2013-11-13 08:29:00,34.2,23.0,30.53,ESE,108,1.0,5.0,63,0.00,,,0.00,weatherlink.com 1.10,2013-11-13 13:29:00,
2013-11-13 08:44:00,35.9,23.0,30.53,West,269,0.0,5.0,60,0.00,,,0.00,weatherlink.com 1.10,2013-11-13 13:44:00,
2013-11-13 08:59:00,36.3,23.0,30.54,SSE,147,2.0,7.0,59,0.00,,,0.00,weatherlink.com 1.10,2013-11-13 13:59:00,
2013-11-13 09:14:00,37.3,23.0,30.54,North,10,1.0,5.0,57,0.00,,,0.00,weatherlink.com 1.10,2013-11-13 14:14:00,
2013-11-13 09:29:00,37.9,23.0,30.54,West,266,0.0,5.0,55,0.00,,,0.00,weatherlink.com 1.10,2013-11-13 14:29:00,
2013-11-13 09:44:00,39.0,24.0,30.54,WNW,302,2.0,5.0,55,0.00,,,0.00,weatherlink.com 1.10,2013-11-13 14:44:00,
2013-11-13 10:00:00,39.4,22.0,30.54,WSW,253,2.0,4.0,49,0.00,,,0.00,weatherlink.com 1.10,2013-11-13 15:00:00,
2013-11-13 10:15:00,40.4,23.0,30.54,WSW,238,4.0,5.0,50,0.00,,,0.00,weatherlink.com 1.10,2013-11-13 15:15:00,
2013-11-13 10:30:00,40.7,23.0,30.54,NE,34,1.0,5.0,49,0.00,,,0.00,weatherlink.com 1.10,2013-11-13 15:30:00,
2013-11-13 10:45:00,41.3,23.0,30.54,ESE,119,1.0,5.0,48,0.00,,,0.00,weatherlink.com 1.10,2013-11-13 15:45:00,
2013-11-13 11:00:00,41.1,21.0,30.54,NNW,341,3.0,6.0,44,0.00,,,0.00,weatherlink.com 1.10,2013-11-13 16:00:00,
2013-11-13 11:15:00,42.0,21.0,30.53,NE,36,3.0,6.0,43,0.00,,,0.00,weatherlink.com 1.10,2013-11-13 16:15:00,
2013-11-13 11:30:00,42.1,20.0,30.52,NW,312,3.0,6.0,42,0.00,,,0.00,weatherlink.com 1.10,2013-11-13 16:30:00,
2013-11-13 11:45:00,42.5,19.0,30.52,NNW,330,1.0,4.0,39,0.00,,,0.00,weatherlink.com 1.10,2013-11-13 16:45:00,
2013-11-13 12:00:00,43.4,20.0,30.51,SSW,212,2.0,6.0,39,0.00,,,0.00,weatherlink.com 1.10,2013-11-13 17:00:00,
2013-11-13 12:15:00,43.6,21.0,30.50,NNE,22,1.0,5.0,41,0.00,,,0.00,weatherlink.com 1.10,2013-11-13 17:15:00,
2013-11-13 12:30:00,43.7,20.0,30.49,NW,309,1.0,4.0,39,0.00,,,0.00,weatherlink.com 1.10,2013-11-13 17:30:00,
2013-11-13 12:45:00,43.6,20.0,30.49,North,11,2.0,8.0,39,0.00,,,0.00,weatherlink.com 1.10,2013-11-13 17:45:00,
2013-11-13 13:00:00,43.8,20.0,30.49,ENE,71,0.0,8.0,39,0.00,,,0.00,weatherlink.com 1.10,2013-11-13 18:00:00,
2013-11-13 13:15:00,45.4,21.0,30.48,NNW,347,2.0,3.0,38,0.00,,,0.00,weatherlink.com 1.10,2013-11-13 18:15:00,
2013-11-13 13:30:00,45.0,21.0,30.48,NNW,327,4.0,5.0,38,0.00,,,0.00,weatherlink.com 1.10,2013-11-13 18:30:00,
2013-11-13 13:45:00,45.9,20.0,30.48,North,355,3.0,5.0,36,0.00,,,0.00,weatherlink.com 1.10,2013-11-13 18:45:00,
2013-11-13 14:00:00,45.8,19.0,30.47,WSW,246,0.0,5.0,34,0.00,,,0.00,weatherlink.com 1.10,2013-11-13 19:00:00,
2013-11-13 14:15:00,46.2,19.0,30.47,ENE,60,0.0,3.0,34,0.00,,,0.00,weatherlink.com 1.10,2013-11-13 19:15:00,
2013-11-13 14:30:00,45.7,21.0,30.47,WSW,239,1.0,4.0,37,0.00,,,0.00,weatherlink.com 1.10,2013-11-13 19:30:00,
2013-11-13 14:45:00,45.1,19.0,30.47,WNW,302,1.0,7.0,36,0.00,,,0.00,weatherlink.com 1.10,2013-11-13 19:45:00,
2013-11-13 15:00:00,44.9,20.0,30.47,WSW,249,0.0,3.0,37,0.00,,,0.00,weatherlink.com 1.10,2013-11-13 20:00:00,
2013-11-13 15:15:00,44.1,20.0,30.47,ENE,57,2.0,5.0,38,0.00,,,0.00,weatherlink.com 1.10,2013-11-13 20:15:00,
2013-11-13 15:30:00,44.0,20.0,30.47,NW,322,2.0,5.0,38,0.00,,,0.00,weatherlink.com 1.10,2013-11-13 20:30:00,
2013-11-13 15:45:00,43.7,21.0,30.47,NNE,13,0.0,5.0,40,0.00,,,0.00,weatherlink.com 1.10,2013-11-13 20:45:00,
2013-11-13 16:00:00,43.1,21.0,30.48,SW,228,0.0,2.0,41,0.00,,,0.00,weatherlink.com 1.10,2013-11-13 21:00:00,
2013-11-13 16:15:00,42.9,22.0,30.48,ESE,106,0.0,1.0,43,0.00,,,0.00,weatherlink.com 1.10,2013-11-13 21:15:00,
2013-11-13 16:30:00,42.2,22.0,30.48,NNE,20,0.0,1.0,45,0.00,,,0.00,weatherlink.com 1.10,2013-11-13 21:30:00,
2013-11-13 16:45:00,41.2,24.0,30.48,NW,325,0.0,1.0,51,0.00,,,0.00,weatherlink.com 1.10,2013-11-13 21:45:00,
2013-11-13 17:00:00,40.3,22.0,30.48,NW,325,0.0,0.0,49,0.00,,,0.00,weatherlink.com 1.10,2013-11-13 22:00:00,
2013-11-13 17:15:00,38.9,22.0,30.49,NW,326,0.0,0.0,51,0.00,,,0.00,weatherlink.com 1.10,2013-11-13 22:15:00,
2013-11-13 17:30:00,37.8,23.0,30.50,NW,326,0.0,0.0,55,0.00,,,0.00,weatherlink.com 1.10,2013-11-13 22:30:00,
2013-11-13 17:45:00,36.5,22.0,30.50,NW,326,0.0,0.0,57,0.00,,,0.00,weatherlink.com 1.10,2013-11-13 22:45:00,
2013-11-13 18:00:00,35.5,23.0,30.51,NW,323,0.0,1.0,61,0.00,,,0.00,weatherlink.com 1.10,2013-11-13 23:00:00,
2013-11-13 18:15:00,34.5,23.0,30.51,SSW,194,1.0,1.0,64,0.00,,,0.00,weatherlink.com 1.10,2013-11-13 23:15:00,
2013-11-13 18:30:00,33.7,24.0,30.50,NW,321,0.0,1.0,67,0.00,,,0.00,weatherlink.com 1.10,2013-11-13 23:30:00,
2013-11-13 18:45:00,32.9,24.0,30.50,NW,321,0.0,1.0,69,0.00,,,0.00,weatherlink.com 1.10,2013-11-13 23:45:00,
2013-11-13 19:00:00,32.3,24.0,30.50,NW,321,0.0,1.0,71,0.00,,,0.00,weatherlink.com 1.10,2013-11-14 00:00:00,
2013-11-13 19:15:00,31.6,24.0,30.50,NW,309,0.0,0.0,73,0.00,,,0.00,weatherlink.com 1.10,2013-11-14 00:15:00,
2013-11-13 19:35:00,31.0,24.0,30.50,NW,309,0.0,0.0,74,0.00,,,0.00,weatherlink.com 1.10,2013-11-14 00:35:00,
2013-11-13 19:45:00,30.4,23.0,30.51,NW,309,0.0,0.0,75,0.00,,,0.00,weatherlink.com 1.10,2013-11-14 00:45:00,
2013-11-13 20:00:00,29.8,23.0,30.51,NW,309,0.0,0.0,76,0.00,,,0.00,weatherlink.com 1.10,2013-11-14 01:00:00,
2013-11-13 20:15:00,29.4,23.0,30.51,NW,309,0.0,0.0,77,0.00,,,0.00,weatherlink.com 1.10,2013-11-14 01:15:00,
2013-11-13 20:30:00,29.2,23.0,30.51,NW,309,0.0,0.0,78,0.00,,,0.00,weatherlink.com 1.10,2013-11-14 01:30:00,
2013-11-13 20:45:00,28.8,23.0,30.50,NW,309,0.0,0.0,79,0.00,,,0.00,weatherlink.com 1.10,2013-11-14 01:45:00,
2013-11-13 21:00:00,28.7,23.0,30.50,NW,308,0.0,0.0,79,0.00,,,0.00,weatherlink.com 1.10,2013-11-14 02:00:00,
2013-11-13 21:15:00,28.6,23.0,30.50,NW,309,0.0,0.0,80,0.00,,,0.00,weatherlink.com 1.10,2013-11-14 02:15:00,
2013-11-13 21:30:00,28.4,23.0,30.50,NW,309,0.0,0.0,80,0.00,,,0.00,weatherlink.com 1.10,2013-11-14 02:30:00,
2013-11-13 21:45:00,28.1,23.0,30.49,NW,309,0.0,0.0,81,0.00,,,0.00,weatherlink.com 1.10,2013-11-14 02:45:00,
2013-11-13 22:00:00,28.1,23.0,30.50,NW,306,0.0,0.0,81,0.00,,,0.00,weatherlink.com 1.10,2013-11-14 03:00:00,
2013-11-13 22:15:00,28.0,23.0,30.49,NW,308,0.0,0.0,82,0.00,,,0.00,weatherlink.com 1.10,2013-11-14 03:15:00,
2013-11-13 22:30:00,27.9,23.0,30.49,NW,308,0.0,0.0,81,0.00,,,0.00,weatherlink.com 1.10,2013-11-14 03:30:00,
2013-11-13 22:45:00,28.0,23.0,30.49,NW,308,0.0,0.0,82,0.00,,,0.00,weatherlink.com 1.10,2013-11-14 03:45:00,
2013-11-13 23:00:00,27.8,23.0,30.49,NW,308,0.0,0.0,82,0.00,,,0.00,weatherlink.com 1.10,2013-11-14 04:00:00,
2013-11-13 23:15:00,27.9,23.0,30.49,NW,308,0.0,0.0,82,0.00,,,0.00,weatherlink.com 1.10,2013-11-14 04:15:00,
2013-11-13 23:30:00,28.1,23.0,30.49,NW,308,0.0,0.0,82,0.00,,,0.00,weatherlink.com 1.10,2013-11-14 04:30:00,
2013-11-13 23:45:00,28.0,23.0,30.49,NW,308,0.0,1.0,82,0.00,,,0.00,weatherlink.com 1.10,2013-11-14 04:45:00,